Other Surface Observations
Issued by NWS Upton, NY

Home | Current Version | Previous Version | Text Only | Print | Product List | Glossary On
Versions: 1 2 3 4 5 6 7 8 9 10 11 12 13 14 15 16 17 18 19 20 21 22 23 24 25 26 27 28 29 30 31 32 33 34 35 36 37 38 39 40 41 42 43 44 45 46 47 48 49 50
000
SXUS51 KOKX 210357
OSOOKX
New York City Metropolitan Area Weather Roundup
National Weather Service New York NY
1200 AM EDT SAT APR 21 2018

CITY           SKY/WX    TMP DP  RH WIND       PRES   REMARKS
Central Park   FAIR      41  23  48 NW7       30.39R
LaGuardia Arpt FAIR      43  25  49 NW9       30.37R
Kennedy Intl   FAIR      40  24  53 NW8       30.38R WCI  34
Newark Liberty FAIR      42  23  46 N13       30.38R
Teterboro Arpt FAIR      40  24  53 NW12      30.37R WCI  33
Bronx Bot Gard   N/A     39  23  52 NW7       30.37S WCI  34
Bronx Lehman C   N/A     41  25  52 NW6         N/A
Queens College   N/A     41  25  52 NW9         N/A
Breezy Point     N/A     41 N/A N/A N7          N/A
Brooklyn Coll    N/A     41  25  52 NW12        N/A
Staten Island    N/A     41  25  52 N10         N/A

>>>>>>>>>>>>>>>>>>>>>>>>>>>>>>>>> KEY <<<<<<<<<<<<<<<<<<<<<<<<<<<<<<<
> SKY/WX - Sky Condition/Present    : R : WCI - Wind Chill Index    <
>          Weather                  : E : VSB - Visibility in Miles <
> TMP    - Temperature in Deg F     : M : HX  - Heat Index          <
> DP     - Dew Point Temperature    : A : TC  - Temperature in      <
> RH     - Relative Humidity        : R :       Celsius             <
> WIND   - Direction/Speed (mph)    : K : VRB - Variable Wind Dir   <
> PRES   - Pressure (in Hg)         : S :                           <
>>>>>>>>>>>>>>>>>>>>>>>>>>>>>>>>> KEY <<<<<<<<<<<<<<<<<<<<<<<<<<<<<<<




USA.gov is the U.S. government's official web portal to all federal, state and local government web resources and services.